Latest Coastal Weather Observations for Cape Wessel

IDD60701

Issued at 6:31 pm CST Monday 29 August 2016 (issued every 10 minutes, with the page automatically refreshed every 10 minutes)

About coastal observations | Map of coastal stations | Coastal observations for NT | Marine services | Other Formats
Station Details ID: 200786 Name: CAPE WESSEL Lat: -11.00 Lon: 136.76 Height: 18.0 m
Data from the previous 72 hours. | See also: Recent months at Cape Wessel
Date/Time
CST
Temp
°C
Wind Pressure Rain since
9am
mm
Weather Cloud Vis
km
Sea
Height
m
Swell
Dir  Spd
kts
Gust
kts
hPa Trend Height
m
Period
s
Dir
29/06:00pm 26.6 - - - 1012.4 - - - - - - - - -
29/05:30pm 27.4 - - - 1012.3 - - - - - - - - -
29/05:00pm 28.7 - - - 1012.3 - - - - - - - - -
29/04:30pm 28.7 - - - 1012.2 - - - - - - - - -
29/04:00pm 29.9 - - - 1012.1 - - - - - - - - -
29/03:30pm 30.1 - - - 1012.1 - - - - - - - - -
29/03:00pm 30.8 - - - 1012.3 - 0.0 - - - - - - -
29/02:30pm 29.5 - - - 1012.7 - - - - - - - - -
29/02:00pm 31.0 - - - 1013.0 - - - - - - - - -
29/01:30pm 31.5 - - - 1013.2 - - - - - - - - -
29/01:00pm 31.8 - - - 1013.6 - - - - - - - - -
29/12:30pm 31.6 - - - 1014.0 - - - - - - - - -
29/12:00pm 30.2 - - - 1014.4 - - - - - - - - -
29/11:30am 30.7 - - - 1014.6 - - - - - - - - -
29/11:00am 30.0 - - - 1015.1 - - - - - - - - -
29/10:30am 30.4 - - - 1015.3 - - - - - - - - -
29/10:00am 28.7 - - - 1015.5 - - - - - - - - -
29/09:30am 29.4 - - - 1015.2 - - - - - - - - -
29/09:00am 28.7 - - - 1015.0 - 0.0 - - - - - - -
29/08:30am 28.3 - - - 1014.7 - - - - - - - - -
29/08:00am 27.7 - - - 1014.6 - - - - - - - - -
29/07:30am 26.9 - - - 1014.2 - - - - - - - - -
29/07:00am 26.0 - - - 1013.8 - - - - - - - - -
29/06:30am 25.6 - - - 1013.1 - - - - - - - - -
29/06:00am 25.4 - - - 1012.8 - - - - - - - - -
29/05:30am 25.3 - - - 1012.4 - - - - - - - - -
29/05:00am 25.4 - - - 1012.3 - - - - - - - - -
29/04:30am 25.5 - - - 1012.0 - - - - - - - - -
29/04:00am 25.7 - - - 1012.2 - - - - - - - - -
29/03:30am 25.6 - - - 1012.3 - - - - - - - - -
29/03:00am 25.3 - - - 1012.3 - 0.0 - - - - - - -
29/02:30am 25.5 - - - 1012.5 - - - - - - - - -
29/02:00am 25.3 - - - 1012.6 - - - - - - - - -
29/01:30am 25.2 - - - 1012.6 - - - - - - - - -
29/01:00am 25.2 - - - 1012.9 - - - - - - - - -
29/12:30am 25.1 - - - 1013.1 - - - - - - - - -
29/12:00am 25.1 - - - 1013.3 - - - - - - - - -
 
Date/Time
CST
Temp
°C
Wind Pressure Rain since
9am
mm
Weather Cloud Vis
km
Sea
Height
m
Swell
Dir  Spd
kts
Gust
kts
hPa Trend Height
m
Period
s
Dir
28/11:30pm 25.2 - - - 1013.4 - - - - - - - - -
28/11:00pm 25.4 - - - 1013.6 - - - - - - - - -
28/10:30pm 25.0 - - - 1013.4 - - - - - - - - -
28/10:00pm 25.1 - - - 1013.5 - - - - - - - - -
28/09:30pm 25.0 - - - 1013.4 - - - - - - - - -
28/09:00pm 25.0 - - - 1013.4 - 0.0 - - - - - - -
28/08:30pm 25.0 - - - 1013.3 - - - - - - - - -
28/08:00pm 25.0 - - - 1013.1 - - - - - - - - -
28/07:30pm 25.0 - - - 1012.8 - - - - - - - - -
28/07:00pm 25.1 - - - 1012.6 - - - - - - - - -
28/06:30pm 25.1 - - - 1012.2 - - - - - - - - -
28/06:00pm 25.6 - - - 1012.2 - - - - - - - - -
28/05:30pm 26.3 - - - 1012.1 - - - - - - - - -
28/05:00pm 27.3 - - - 1012.2 - - - - - - - - -
28/04:30pm 27.8 - - - 1012.0 - - - - - - - - -
28/04:00pm 28.3 - - - 1012.0 - - - - - - - - -
28/03:30pm 28.9 - - - 1012.1 - - - - - - - - -
28/03:00pm 29.2 - - - 1012.5 - 0.0 - - - - - - -
28/02:30pm 29.5 - - - 1012.8 - - - - - - - - -
28/02:00pm 29.7 - - - 1013.3 - - - - - - - - -
28/01:30pm 29.4 - - - 1013.7 - - - - - - - - -
28/01:00pm 30.2 - - - 1014.3 - - - - - - - - -
28/12:30pm 29.9 - - - 1014.7 - - - - - - - - -
28/12:00pm 30.0 - - - 1015.2 - - - - - - - - -
28/11:30am 28.1 - - - 1015.7 - - - - - - - - -
28/11:00am 29.7 - - - 1016.2 - - - - - - - - -
28/10:30am 29.1 - - - 1016.4 - - - - - - - - -
28/10:00am 27.7 - - - 1016.7 - - - - - - - - -
28/09:30am 28.1 - - - 1016.6 - - - - - - - - -
28/09:00am 27.3 - - - 1016.4 - 0.0 - - - - - - -
28/08:30am 26.4 - - - 1016.2 - - - - - - - - -
28/08:00am 25.1 - - - 1016.2 - - - - - - - - -
28/07:30am 24.4 - - - 1015.7 - - - - - - - - -
28/07:00am 23.9 - - - 1015.6 - - - - - - - - -
28/06:30am 23.7 - - - 1015.3 - - - - - - - - -
28/06:00am 23.8 - - - 1015.0 - - - - - - - - -
28/05:30am 23.8 - - - 1014.7 - - - - - - - - -
28/05:00am 24.0 - - - 1014.3 - - - - - - - - -
28/04:30am 23.7 - - - 1014.1 - - - - - - - - -
28/04:00am 23.4 - - - 1014.1 - - - - - - - - -
28/03:30am 23.5 - - - 1013.9 - - - - - - - - -
28/03:00am 23.5 - - - 1013.9 - 0.0 - - - - - - -
28/02:30am 23.5 - - - 1014.2 - - - - - - - - -
28/02:00am 23.5 - - - 1014.5 - - - - - - - - -
28/01:30am 23.5 - - - 1014.7 - - - - - - - - -
28/01:00am 23.5 - - - 1015.0 - - - - - - - - -
28/12:30am 23.4 - - - 1015.2 - - - - - - - - -
28/12:00am 23.6 - - - 1015.5 - - - - - - - - -
 
Date/Time
CST
Temp
°C
Wind Pressure Rain since
9am
mm
Weather Cloud Vis
km
Sea
Height
m
Swell
Dir  Spd
kts
Gust
kts
hPa Trend Height
m
Period
s
Dir
27/11:30pm 23.7 - - - 1015.5 - - - - - - - - -
27/11:00pm 24.0 - - - 1015.6 - - - - - - - - -
27/10:30pm 23.9 - - - 1015.4 - - - - - - - - -
27/10:00pm 24.0 - - - 1015.5 - - - - - - - - -
27/09:30pm 24.0 - - - 1015.4 - - - - - - - - -
27/09:00pm 24.1 - - - 1015.3 - 0.0 - - - - - - -
27/08:30pm 24.2 - - - 1015.0 - - - - - - - - -
27/08:00pm 24.3 - - - 1014.7 - - - - - - - - -
27/07:30pm 24.4 - - - 1014.2 - - - - - - - - -
27/07:00pm 24.6 - - - 1014.0 - - - - - - - - -
27/06:30pm 24.5 - - - 1013.6 - - - - - - - - -
27/06:00pm 24.8 - - - 1013.3 - - - - - - - - -
27/05:30pm 25.4 - - - 1013.2 - - - - - - - - -
27/05:00pm 26.1 - - - 1013.4 - - - - - - - - -
27/04:30pm 26.7 - - - 1013.3 - - - - - - - - -
27/04:00pm 27.4 - - - 1013.3 - - - - - - - - -
27/03:30pm 27.8 - - - 1013.3 - - - - - - - - -
27/03:00pm 28.1 - - - 1013.5 - 0.0 - - - - - - -
27/02:30pm 28.7 - - - 1013.8 - - - - - - - - -
27/02:00pm 28.9 - - - 1014.2 - - - - - - - - -
27/01:30pm 29.6 - - - 1014.5 - - - - - - - - -
27/01:00pm 29.6 - - - 1015.0 - - - - - - - - -
27/12:30pm 30.0 - - - 1015.3 - - - - - - - - -
27/12:00pm 29.2 - - - 1015.6 - - - - - - - - -
27/11:30am 29.4 - - - 1016.0 - - - - - - - - -
27/11:00am 29.2 - - - 1016.4 - - - - - - - - -
27/10:30am 29.3 - - - 1016.5 - - - - - - - - -
27/10:00am 28.4 - - - 1016.8 - - - - - - - - -
27/09:30am 28.1 - - - 1016.7 - - - - - - - - -
27/09:00am 27.5 - - - 1016.4 - 0.0 - - - - - - -
27/08:30am 26.8 - - - 1016.1 - - - - - - - - -
27/08:00am 26.0 - - - 1015.9 - - - - - - - - -
27/07:30am 25.4 - - - 1015.6 - - - - - - - - -
27/07:00am 24.9 - - - 1015.6 - - - - - - - - -
27/06:30am 24.5 - - - 1015.1 - - - - - - - - -
27/06:00am 24.5 - - - 1015.1 - - - - - - - - -
27/05:30am 24.5 - - - 1014.7 - - - - - - - - -
27/05:00am 24.5 - - - 1014.4 - - - - - - - - -
27/04:30am 24.6 - - - 1014.3 - - - - - - - - -
27/04:00am 24.3 - - - 1014.4 - - - - - - - - -
27/03:30am 24.4 - - - 1014.3 - - - - - - - - -
27/03:00am 24.4 - - - 1014.5 - 0.0 - - - - - - -
27/02:30am 24.5 - - - 1014.5 - - - - - - - - -
27/02:00am 24.2 - - - 1014.8 - - - - - - - - -
27/01:30am 24.2 - - - 1015.0 - - - - - - - - -
27/01:00am 24.2 - - - 1015.4 - - - - - - - - -
27/12:30am 24.2 - - - 1015.7 - - - - - - - - -
27/12:00am 24.2 - - - 1015.9 - - - - - - - - -
 
Date/Time
CST
Temp
°C
Wind Pressure Rain since
9am
mm
Weather Cloud Vis
km
Sea
Height
m
Swell
Dir  Spd
kts
Gust
kts
hPa Trend Height
m
Period
s
Dir
26/11:30pm 24.2 - - - 1016.0 - - - - - - - - -
26/11:00pm 24.1 - - - 1015.8 - - - - - - - - -
26/10:30pm 24.3 - - - 1015.7 - - - - - - - - -
26/10:00pm 24.3 - - - 1015.4 - - - - - - - - -
26/09:30pm 24.4 - - - 1015.1 - - - - - - - - -
26/09:00pm 24.5 - - - 1014.9 - 0.0 - - - - - - -
26/08:30pm 24.7 - - - 1014.5 - - - - - - - - -
26/08:00pm 24.8 - - - 1014.1 - - - - - - - - -
26/07:30pm 24.9 - - - 1013.7 - - - - - - - - -
26/07:00pm 24.9 - - - 1013.5 - - - - - - - - -

Other Formats:

Comma delimited format used in spreadsheet applications
http://www.bom.gov.au/fwo/IDD60701/IDD60701.94147.axf

JavaScript Object Notation format (JSON) in row-major order
http://www.bom.gov.au/fwo/IDD60701/IDD60701.94147.json